When you browse on this site, cookies collect data to enhance your experience and personalize the content and advertising you see.
Visit our Privacy Policy to learn more. By continuing to use the site, you agree to this use of cookies and data.
  • In United Kingdom
  • List of Countries
  • For 7 days
  • Water Temperature
  • Satellite Maps
  • Weather Map
  • Weather Widgets
  • user-avatar
    Login

    Hourly Weather Man

    Today, 26 June, Wednesday

    Time Temperature Precipitation Wind Pressure Humidity
    00:00 +22°C° 1 mm 0 mps 727 mmHg 98%
    01:00 +24°C° 1 mm 1 mps 726 mmHg 99%
    02:00 +23°C° 1 mm 1 mps 726 mmHg 99%
    03:00 +23°C° 0.1 mm 1 mps 726 mmHg 99%
    04:00 +24°C° 0.1 mm 1 mps 726 mmHg 99%
    05:00 +24°C° 0.1 mm 1 mps 726 mmHg 99%
    06:00 +24°C° 0.3 mm 1 mps 727 mmHg 97%
    07:00 +25°C° 0.3 mm 1 mps 727 mmHg 94%
    08:00 +26°C° 0.3 mm 1 mps 728 mmHg 92%
    09:00 +27°C° 0.3 mm 1 mps 728 mmHg 85%
    10:00 +28°C° 0.3 mm 1 mps 728 mmHg 79%
    11:00 +29°C° 0.3 mm 1 mps 727 mmHg 73%
    12:00 +30°C° 0.5 mm 1 mps 727 mmHg 71%
    13:00 +30°C° 0.5 mm 2 mps 726 mmHg 68%
    14:00 +31°C° 0.5 mm 2 mps 726 mmHg 66%
    15:00 +29°C° 0.2 mm 2 mps 726 mmHg 72%
    16:00 +28°C° 0.2 mm 2 mps 726 mmHg 77%
    17:00 +27°C° 0.2 mm 2 mps 726 mmHg 83%
    18:00 +26°C° 0 mm 1 mps 726 mmHg 86%
    19:00 +25°C° 0 mm 1 mps 727 mmHg 89%
    20:00 +24°C° 0 mm 1 mps 727 mmHg 92%
    21:00 +24°C° 0 mm 1 mps 728 mmHg 94%
    22:00 +23°C° 0 mm 1 mps 728 mmHg 96%
    23:00 +23°C° 0 mm 1 mps 728 mmHg 98%

    Tomorrow, 27 June, Thursday

    Time Temperature Precipitation Wind Pressure Humidity
    00:00 +23°C° 0.1 mm 1 mps 728 mmHg 98%
    01:00 +23°C° 0.1 mm 1 mps 727 mmHg 98%
    02:00 +23°C° 0.1 mm 1 mps 727 mmHg 98%
    03:00 +23°C° 0 mm 1 mps 727 mmHg 98%
    04:00 +23°C° 0 mm 1 mps 727 mmHg 98%
    05:00 +21°C° 0 mm 0 mps 727 mmHg 98%
    06:00 +24°C° 0.1 mm 1 mps 727 mmHg 95%
    07:00 +25°C° 0.1 mm 1 mps 728 mmHg 92%
    08:00 +26°C° 0.1 mm 1 mps 728 mmHg 88%
    09:00 +27°C° 0.1 mm 1 mps 728 mmHg 79%
    10:00 +29°C° 0.1 mm 1 mps 728 mmHg 69%
    11:00 +31°C° 0.1 mm 1 mps 728 mmHg 60%
    12:00 +31°C° 0 mm 1 mps 727 mmHg 59%
    13:00 +31°C° 0 mm 1 mps 726 mmHg 58%
    14:00 +32°C° 0 mm 1 mps 725 mmHg 58%
    15:00 +31°C° 0 mm 1 mps 725 mmHg 63%
    16:00 +30°C° 0 mm 1 mps 725 mmHg 67%
    17:00 +30°C° 0 mm 1 mps 725 mmHg 72%
    18:00 +28°C° 0.2 mm 1 mps 726 mmHg 80%
    19:00 +26°C° 0.2 mm 1 mps 726 mmHg 87%
    20:00 +25°C° 0.2 mm 1 mps 726 mmHg 94%
    21:00 +24°C° 0.2 mm 1 mps 727 mmHg 96%
    22:00 +24°C° 0.2 mm 1 mps 727 mmHg 97%
    23:00 +24°C° 0.2 mm 1 mps 727 mmHg 98%

    Day after tomorrow, 28 June, Friday

    Time Temperature Precipitation Wind Pressure Humidity
    00:00 +24°C° 0.1 mm 1 mps 727 mmHg 99%
    01:00 +24°C° 0.1 mm 1 mps 726 mmHg 99%
    02:00 +23°C° 0.1 mm 1 mps 726 mmHg 99%
    03:00 +23°C° 0 mm 1 mps 726 mmHg 99%
    04:00 +23°C° 0 mm 1 mps 726 mmHg 99%
    05:00 +23°C° 0 mm 1 mps 726 mmHg 99%
    06:00 +24°C° 0 mm 1 mps 727 mmHg 96%
    07:00 +25°C° 0 mm 1 mps 727 mmHg 94%
    08:00 +26°C° 0 mm 1 mps 727 mmHg 91%
    09:00 +28°C° 0.1 mm 1 mps 727 mmHg 80%
    10:00 +30°C° 0.1 mm 1 mps 727 mmHg 70%
    11:00 +32°C° 0.1 mm 1 mps 727 mmHg 59%
    12:00 +32°C° 0.4 mm 1 mps 726 mmHg 61%
    13:00 +30°C° 0.4 mm 0 mps 726 mmHg 63%
    14:00 +30°C° 0.4 mm 0 mps 725 mmHg 64%
    15:00 +29°C° 0.9 mm 0 mps 725 mmHg 73%
    16:00 +27°C° 0.9 mm 0 mps 725 mmHg 81%
    17:00 +26°C° 0.9 mm 0 mps 724 mmHg 90%
    18:00 +25°C° 0.5 mm 0 mps 725 mmHg 92%
    19:00 +23°C° 0.5 mm 0 mps 726 mmHg 95%
    20:00 +24°C° 0.5 mm 1 mps 726 mmHg 97%
    21:00 +24°C° 0.1 mm 1 mps 727 mmHg 98%
    22:00 +24°C° 0.1 mm 1 mps 727 mmHg 98%
    23:00 +24°C° 0.1 mm 1 mps 727 mmHg 98%

    29 June, Saturday

    Time Temperature Precipitation Wind Pressure Humidity
    00:00 +24°C° 0.1 mm 1 mps 727 mmHg 98%
    01:00 +24°C° 0.1 mm 1 mps 726 mmHg 99%
    02:00 +23°C° 0.1 mm 1 mps 726 mmHg 99%
    03:00 +23°C° 0 mm 1 mps 726 mmHg 99%
    04:00 +23°C° 0 mm 1 mps 726 mmHg 99%
    05:00 +23°C° 0 mm 1 mps 726 mmHg 99%
    06:00 +24°C° 0.1 mm 1 mps 726 mmHg 97%
    07:00 +25°C° 0.1 mm 1 mps 727 mmHg 95%
    08:00 +25°C° 0.1 mm 1 mps 727 mmHg 93%
    09:00 +27°C° 0.2 mm 1 mps 727 mmHg 86%
    10:00 +28°C° 0.2 mm 1 mps 727 mmHg 78%
    11:00 +29°C° 0.2 mm 1 mps 727 mmHg 71%
    12:00 +29°C° 1.2 mm 1 mps 726 mmHg 76%
    13:00 +29°C° 1.2 mm 1 mps 725 mmHg 81%
    14:00 +29°C° 1.2 mm 1 mps 725 mmHg 86%
    15:00 +28°C° 1 mm 1 mps 725 mmHg 89%
    16:00 +25°C° 1 mm 0 mps 725 mmHg 92%
    17:00 +25°C° 1 mm 0 mps 725 mmHg 95%
    18:00 +24°C° 0.7 mm 0 mps 725 mmHg 96%
    19:00 +23°C° 0.7 mm 0 mps 726 mmHg 96%
    20:00 +22°C° 0.7 mm 0 mps 727 mmHg 97%
    21:00 +22°C° 0.1 mm 0 mps 727 mmHg 98%
    22:00 +23°C° 0.1 mm 1 mps 727 mmHg 98%
    23:00 +23°C° 0.1 mm 1 mps 727 mmHg 99%

    30 June, Sunday

    Time Temperature Precipitation Wind Pressure Humidity
    00:00 +23°C° 0.1 mm 1 mps 727 mmHg 99%
    01:00 +23°C° 0.1 mm 1 mps 727 mmHg 99%
    02:00 +21°C° 0.1 mm 0 mps 727 mmHg 99%
    03:00 +23°C° 0.1 mm 1 mps 727 mmHg 99%
    04:00 +23°C° 0.1 mm 1 mps 727 mmHg 99%
    05:00 +23°C° 0.1 mm 1 mps 727 mmHg 99%
    06:00 +23°C° 0.1 mm 1 mps 727 mmHg 98%
    07:00 +24°C° 0.1 mm 1 mps 728 mmHg 97%
    08:00 +24°C° 0.1 mm 1 mps 728 mmHg 96%
    09:00 +25°C° 0.2 mm 1 mps 728 mmHg 90%
    10:00 +27°C° 0.2 mm 1 mps 728 mmHg 83%
    11:00 +28°C° 0.2 mm 1 mps 728 mmHg 77%
    12:00 +29°C° 0.1 mm 1 mps 727 mmHg 71%
    13:00 +30°C° 0.1 mm 1 mps 727 mmHg 65%
    14:00 +31°C° 0.1 mm 1 mps 726 mmHg 59%
    15:00 +30°C° 0.1 mm 1 mps 726 mmHg 65%
    16:00 +29°C° 0.1 mm 1 mps 726 mmHg 72%
    17:00 +28°C° 0.1 mm 1 mps 726 mmHg 78%
    18:00 +27°C° 0.1 mm 1 mps 726 mmHg 84%
    19:00 +23°C° 0.1 mm 0 mps 727 mmHg 90%
    20:00 +22°C° 0.1 mm 0 mps 727 mmHg 96%
    21:00 +22°C° 0 mm 0 mps 727 mmHg 97%
    22:00 +21°C° 0 mm 0 mps 727 mmHg 97%
    23:00 +21°C° 0 mm 0 mps 727 mmHg 98%

    1 July, Monday

    Time Temperature Precipitation Wind Pressure Humidity
    00:00 +23°C° 0.1 mm 1 mps 727 mmHg 98%
    01:00 +23°C° 0.1 mm 1 mps 727 mmHg 98%
    02:00 +23°C° 0.1 mm 1 mps 726 mmHg 98%
    03:00 +23°C° 0.1 mm 1 mps 727 mmHg 98%
    04:00 +23°C° 0.1 mm 1 mps 727 mmHg 98%
    05:00 +21°C° 0.1 mm 0 mps 727 mmHg 98%
    06:00 +21°C° 0 mm 0 mps 728 mmHg 97%
    07:00 +22°C° 0 mm 0 mps 728 mmHg 95%
    08:00 +24°C° 0 mm 1 mps 728 mmHg 93%
    09:00 +26°C° 0 mm 1 mps 728 mmHg 84%
    10:00 +27°C° 0 mm 1 mps 728 mmHg 76%
    11:00 +29°C° 0 mm 1 mps 728 mmHg 67%
    12:00 +30°C° 0 mm 1 mps 727 mmHg 63%
    13:00 +30°C° 0 mm 1 mps 727 mmHg 60%
    14:00 +31°C° 0 mm 1 mps 726 mmHg 56%
    15:00 +30°C° 0 mm 1 mps 726 mmHg 61%
    16:00 +30°C° 0 mm 1 mps 726 mmHg 66%
    17:00 +29°C° 0 mm 1 mps 725 mmHg 71%
    18:00 +25°C° 0 mm 0 mps 726 mmHg 75%
    19:00 +24°C° 0 mm 0 mps 727 mmHg 80%
    20:00 +22°C° 0 mm 0 mps 727 mmHg 84%
    21:00 +22°C° 0 mm 0 mps 727 mmHg 86%
    22:00 +22°C° 0 mm 0 mps 727 mmHg 88%
    23:00 +21°C° 0 mm 0 mps 727 mmHg 90%
    Show more